STARLINK-3051 (49157 NORAD) Tracking and Keplerian Element Data

This shows tracking and keplerian element data for the satellite.

Feedback or suggestion? Click here.




ElementValue
Catalog49157
NameSTARLINK-3051
Epoch Orbit806
Epoch Day300.83334491
Epoch Year2021
RAAN3.9844
Inclination70.001
Eccentricity0.0003834
Argument of Perigee293.1986
Mean Anonmoly69.0579
Mean Motion15.69751797
Decay Rate-0.00030466
L11 49157U 21082AD 21300.83334491 -.00030466 00000-0 -25430-3 0 9998
L22 49157 70.0010 3.9844 0003834 293.1986 69.0579 15.69751797 8067

Live tracking and technical data element details for STARLINK-3051 (NORAD 49157). STARLINK-3051 can be tracked NOW for your location showing map with azimuth and elevation plus other details from your city location.

Track the satellite on the map from your city or location and see movement details for azimuth, elevation, latitude, longitude, range, height, and movement on the map or in text.







IsCatalogInMostPopularTable: catalog: 49157, numindb: 5
Update: records affected: 1



GetName: 49157 STARLINK-3051

Hit Count: updated at: Thu, 28 Oct 2021 12:14:40 GMT